Location: Newark
(34.6283°N, 36.0776°E)
Time: 09:23:25
(UTC+00:00)

A-11 Canister half - Pass Details

Date: 18 September 2019
Orbit: 1527 x 1682 km, 47.3° (Epoch: 14 October)

Event Time Altitude Azimuth Distance (km) Brightness Sun altitude
Rises 05:09:24 0° 287° (WNW) 4,743 11.0 21.4°
Reaches altitude 10° 05:12:47 10° 295° (WNW) 3,779 10.6 22.1°
Maximum altitude 05:21:38 39° 2° (N) 2,266 10.0 23.8°
Drops below altitude 10° 05:30:44 10° 69° (ENE) 3,892 12.1 25.7°
Sets 05:34:16 0° 77° (ENE) 4,897 12.5 26.3°
